Location: Gartempe
(46.1501°N, 1.7371°E)
Time: 14:28:07
(UTC+00:00)

Daily predictions for brighter satellites

Satellite Brightness Start Highest point End
(mag) Time Altitude Azimuth Time Altitude Azimuth Time Altitude Azimuth
STARLINK-1105 2.9 18:41:42 10° WSW 18:44:50 87° NW 18:48:00 10° ENE
STARLINK-1206 2.9 18:42:13 10° WSW 18:45:20 86° NNW 18:48:27 10° ENE
STARLINK-1247 2.9 18:42:39 10° WSW 18:45:46 86° NNW 18:48:54 10° ENE
FREGAT/IRIS 3.8 18:43:50 10° ESE 18:45:59 21° ENE 18:48:10 10° NNE
STARLINK-1243 3.7 18:42:06 10° SW 18:46:05 59° SE 18:50:07 10° ENE
STARLINK-1227 2.9 18:43:04 10° WSW 18:46:12 85° NNW 18:49:21 10° ENE
STARLINK-1218 2.9 18:43:34 10° WSW 18:46:40 84° NNW 18:49:48 10° ENE
Abrixas rocket 4.1 18:45:37 10° S 18:47:01 13° SE 18:48:26 10° ESE
STARLINK-1226 2.9 18:44:00 10° WSW 18:47:07 84° NNW 18:50:15 10° ENE
STARLINK-1254 2.9 18:44:25 10° WSW 18:47:33 83° NNW 18:50:42 10° ENE
STARLINK-1079 3.6 18:43:37 10° WNW 18:47:41 73° NNE 18:51:42 10° ESE
STARLINK-1215 2.9 18:44:55 10° WSW 18:48:01 82° NNW 18:51:09 10° ENE
STARLINK-1231 2.9 18:45:21 10° WSW 18:48:27 82° NNW 18:51:36 10° ENE
STARLINK-1232 3.0 18:46:15 10° WSW 18:49:22 80° NNW 18:52:30 10° ENE
STARLINK-1217 3.0 18:46:43 10° WSW 18:49:49 80° NNW 18:52:57 10° ENE
Cosmos 304 Rocket 3.8 18:45:19 10° NNW 18:50:06 68° ENE 18:54:51 10° SSE
STARLINK-1208 3.0 18:47:07 10° WSW 18:50:15 79° NNW 18:53:25 10° ENE
Cosmos 1953 4.3 18:49:30 10° E 18:50:19 11° E 18:51:07 10° ENE
COSMO-SKYMED 1 4.5 18:46:41 10° N 18:50:40 36° WNW 18:54:39 10° SW
STARLINK-1229 3.0 18:47:36 10° WSW 18:50:43 78° NNW 18:53:51 10° ENE
Cosmos 1709 Rocket 4.3 18:44:50 10° N 18:50:46 44° ENE 18:56:35 10° SE
STARLINK-1236 3.6 18:46:51 10° SW 18:50:52 64° SE 18:54:55 10° ENE
STARLINK-1271 3.0 18:48:03 10° WSW 18:51:10 78° NNW 18:54:18 10° ENE
STARLINK-1270 3.0 18:48:31 10° WSW 18:51:38 77° NNW 18:54:46 10° ENE
SeaSat 1 3.4 18:47:00 10° NNE 18:51:49 54° NW 18:56:36 10° SW
STARLINK-1154 3.0 18:48:58 10° WSW 18:52:05 77° NNW 18:55:12 10° ENE
STARLINK-1116 3.6 18:48:03 10° WNW 18:52:06 77° NNE 18:56:09 10° ESE
STARLINK-1197 3.0 18:49:52 10° WSW 18:52:59 75° NNW 18:56:06 10° ENE
STARLINK-1189 3.0 18:50:20 10° WSW 18:53:26 75° NNW 18:56:34 10° ENE
Cosmos 1269 Rocket 4.3 18:48:29 10° S 18:53:32 48° ESE 18:58:37 10° NNE
STARLINK-1187 3.2 18:51:11 10° WSW 18:54:17 66° NNW 18:57:25 10° NE
STARLINK-1188 3.1 18:51:14 10° WSW 18:54:20 74° NNW 18:57:28 10° ENE
STARLINK-1198 3.1 18:51:14 10° WSW 18:54:21 74° NNW 18:57:28 10° ENE
STARLINK-1235 3.4 18:51:54 10° WSW 18:55:00 59° NNW 18:58:08 10° NE
CZ-4C R/B 4.4 18:50:43 10° WNW 18:55:09 24° NNW 19:00:14 10° NNE
SL-08 ROCKET BODY 4.4 18:49:31 10° N 18:55:41 75° E 19:01:42 10° SSE
STARLINK-1199 3.1 18:53:11 10° WSW 18:56:17 71° NNW 18:59:26 10° ENE
STARLINK-1191 3.1 18:53:37 10° WSW 18:56:44 71° NNW 18:59:53 10° ENE
STARLINK-1210 3.1 18:54:05 10° WSW 18:57:12 70° NNW 19:00:20 10° ENE
STARLINK-1221 3.2 18:54:31 10° WSW 18:57:39 70° NNW 19:00:48 10° ENE
STARLINK-1219 3.2 18:55:00 10° WSW 18:58:06 69° NNW 19:01:15 10° NE
STARLINK-1118 4.3 18:56:26 10° W 18:58:09 20° SW 18:59:51 10° S
STARLINK-1222 3.2 18:55:26 10° WSW 18:58:33 69° NNW 19:01:42 10° NE
STARLINK-1211 3.2 18:55:53 10° WSW 18:59:00 68° NNW 19:02:08 10° NE
YAOGAN 1 4.0 18:55:10 10° S 18:59:16 42° W 19:03:24 10° NNW
ISS -2.4 18:56:12 10° WNW 18:59:17 32° N 19:02:22 10° ENE
STARLINK-1214 3.2 18:56:20 10° WSW 18:59:27 67° NNW 19:02:35 10° NE
STARLINK-1245 3.2 18:56:49 10° WSW 18:59:55 67° NNW 19:03:02 10° NE
STARLINK-1238 3.2 18:57:12 10° WSW 19:00:19 66° NNW 19:03:28 10° NE
STARLINK-1269 3.5 18:56:37 10° SW 19:00:41 75° SE 19:04:45 10° ENE
STARLINK-1205 3.2 18:58:08 10° WSW 19:01:14 65° NNW 19:04:21 10° NE
STARLINK-1094 3.6 18:57:18 10° WNW 19:01:22 87° NNE 19:05:21 10° ESE
Cosmos 1455 Rocket 3.0 18:57:13 10° S 19:01:29 63° E 19:05:49 10° NNE
STARLINK-1204 3.2 18:58:37 10° WSW 19:01:42 65° NNW 19:04:49 10° NE
Cosmos 2297 3.8 18:56:05 10° NNW 19:01:43 61° ENE 19:07:21 10° SE
S3M 4.1 18:59:00 10° S 19:05:22 90° S 19:11:50 10° N
STARLINK-1200 3.5 19:01:25 10° SW 19:05:30 80° SE 19:09:34 10° ENE
Cosmos 2237 Rocket 2.7 19:00:22 10° SW 19:05:57 65° WNW 19:11:35 10° NNE
STARLINK-1117 3.6 19:02:09 10° WNW 19:06:13 88° SW 19:10:00 12° ESE
Cosmos 1386 Rocket 4.5 19:00:41 10° N 19:06:46 89° W 19:12:46 10° S
STARLINK-1073 4.5 19:04:20 10° NW 19:08:16 40° NNE 19:11:53 12° E
Cosmos 1892 Rocket 3.9 19:04:25 10° NNW 19:08:54 74° W 19:13:22 10° S
CZ-2C R/B 3.8 19:05:47 10° NE 19:09:26 19° E 19:13:04 10° SE
Cosmos 1626 Rocket 4.0 19:05:30 10° N 19:09:39 40° ENE 19:13:46 10° SE
Cosmos 1805 3.8 19:05:50 10° SSW 19:09:43 62° WNW 19:13:36 10° N
STARLINK-1192 3.5 19:06:09 10° SW 19:10:14 86° SSE 19:14:21 10° ENE
STARLINK-1078 3.6 19:06:36 10° WNW 19:10:40 83° SSW 19:14:17 13° SE
BREEZE-M DEB (TANK) 4.2 18:59:33 10° WNW 19:12:09 51° SW 19:15:33 10° SSE
Cosmos 2278 Rocket 3.8 19:07:27 10° NW 19:12:35 36° WSW 19:17:42 10° S
STARLINK-1121 4.4 19:09:17 10° NW 19:13:15 42° NNE 19:16:39 13° E
Meteor 2-5 Rocket 4.2 19:07:39 10° NNW 19:13:16 66° W 19:18:45 10° S
STARLINK-1244 3.6 19:11:04 10° WSW 19:15:10 89° NW 19:19:16 10° ENE
STARLINK-1108 3.6 19:11:28 10° WNW 19:15:31 77° SSW 19:18:58 14° SE
ARGOS 3.2 19:10:24 10° SSE 19:15:43 63° ENE 19:21:04 10° N
Cosmos 1602 Rocket 4.1 19:13:28 10° N 19:17:40 38° ENE 19:21:45 10° SE
STARLINK-1106 4.3 19:14:15 10° NW 19:18:14 44° NNE 19:21:25 15° E
STARLINK-1138 3.6 19:15:40 10° WSW 19:19:46 84° NNW 19:23:52 10° ENE
STARLINK-1071 3.7 19:16:07 10° WNW 19:20:10 72° SW 19:23:26 15° SE
STARLINK-1234 4.1 19:18:02 10° W 19:20:50 37° NNW 19:23:38 10° NE
Okean 1-7 Rocket 4.0 19:16:34 10° NNW 19:20:55 64° W 19:25:15 10° S
Cosmos 494 Rocket 4.3 19:16:45 10° SSW 19:21:53 72° WNW 19:27:06 10° NNE
USA 186 1.8 19:19:32 10° SSE 19:22:58 79° ENE 19:26:21 10° N
STARLINK-1112 4.3 19:19:16 10° NW 19:23:16 46° NNE 19:26:14 17° E
MOS 1 Rocket 4.5 19:19:29 10° NE 19:23:56 27° E 19:28:27 10° SSE
Meteor 1-24 Rocket 4.0 19:19:02 10° NNW 19:24:32 71° W 19:29:51 10° S
STARLINK-1110 3.8 19:20:35 10° WNW 19:24:38 67° SW 19:27:43 16° SE
STARLINK-1143 3.7 19:20:34 10° WSW 19:24:40 79° NNW 19:28:46 10° ENE
STARLINK-1124 3.8 19:21:58 10° WNW 19:26:05 66° SW 19:29:13 17° SE
CZ-2C R/B 2.9 19:23:04 10° SSE 19:28:08 84° ENE 19:33:00 10° NNW
STARLINK-1128 4.2 19:24:14 10° NW 19:28:16 48° NNE 19:31:01 19° E
Cosmos 1544 Rocket 3.6 19:24:40 10° S 19:29:04 89° WNW 19:33:31 10° N
Cosmos 1470 2.7 19:27:17 10° S 19:31:06 59° E 19:34:56 10° NNE
STARLINK-1241 3.8 19:28:57 10° WSW 19:33:00 70° NNW 19:37:03 10° ENE
STARLINK-1113 4.1 19:29:13 10° NW 19:33:16 50° NNE 19:35:47 21° E
STARLINK-1122 4.0 19:30:03 10° WNW 19:34:03 57° SW 19:36:48 19° SE
SPOT 3 Rocket 3.7 19:29:48 10° SSE 19:34:54 58° ENE 19:40:01 10° N
MOS 1 4.4 19:31:09 10° SSE 19:36:48 83° WSW 19:42:30 10° NNW
STARLINK-1239 3.9 19:33:54 10° WSW 19:37:56 66° NNW 19:41:56 10° ENE
STARLINK-1119 4.0 19:34:11 10° NW 19:38:15 53° NNE 19:40:34 23° E
STARLINK-1126 4.1 19:35:03 10° WNW 19:39:01 53° SW 19:41:36 20° SSE
Cosmos 2369 Rocket 2.8 19:34:37 10° NNW 19:40:02 42° NE 19:43:14 22° ESE
SJ-6B 2.9 19:36:58 10° SSE 19:41:02 87° WSW 19:45:11 10° NNW
H-2A R/B 4.4 19:34:23 10° WSW 19:41:06 15° SW 19:44:24 10° SSW
STARLINK-1240 4.0 19:38:38 10° WSW 19:42:40 63° NNW 19:46:29 11° NE
Cosmos 1726 3.1 19:42:57 26° E 19:42:57 26° E 19:46:05 10° NNE
STARLINK-1114 4.0 19:39:12 10° NW 19:43:17 56° NNE 19:45:24 26° E
STARLINK-1082 4.2 19:39:33 10° WNW 19:43:30 49° SW 19:45:55 21° SSE
Ariane Rocket 3.8 19:39:11 10° S 19:44:07 52° W 19:49:05 10° NNW
Cosmos 1758 3.2 19:40:59 10° S 19:45:03 79° E 19:49:11 10° NNE
Aureole 2 Rocket 3.3 19:42:05 10° N 19:45:17 32° ENE 19:45:56 29° E
Cosmos 1758 Rocket 4.2 19:42:28 10° N 19:46:30 35° ENE 19:47:53 28° ESE
STARLINK-1216 4.1 19:43:24 10° WSW 19:47:25 59° NNW 19:51:03 12° NE
NOSS 3-3 (A) 4.4 19:42:34 10° S 19:47:44 34° ESE 19:53:26 10° NE
NOSS 3-3 (C) 4.4 19:42:41 10° S 19:47:50 34° ESE 19:53:30 10° NE
STARLINK-1130 (DARKSAT) 3.9 19:44:10 10° NW 19:48:16 59° NNE 19:50:10 29° E
STARLINK-1100 4.3 19:44:30 10° WNW 19:48:23 45° SW 19:50:39 22° SSE
CZ-2C R/B 3.7 19:45:01 10° NNE 19:49:47 69° ESE 19:54:27 10° S
STARLINK-1237 4.2 19:48:13 10° WSW 19:52:12 56° NNW 19:55:37 14° NE
STARLINK-1083 4.5 19:49:16 10° WNW 19:53:07 42° SW 19:55:12 23° SSE
STARLINK-1084 3.8 19:49:07 10° WNW 19:53:15 62° NNE 19:54:56 33° E
Cosmos 2184 Rocket 4.2 19:49:30 10° N 19:55:42 53° ENE 19:59:37 22° SE
IRIDIUM 106 4.3 19:50:43 10° N 19:55:57 68° E 20:00:12 15° SSE
STARLINK-1202 4.2 19:52:59 10° W 19:56:58 53° NNW 20:00:11 15° NE
Spot 2 Rocket 4.4 19:55:41 26° E 19:57:08 31° ENE 20:01:35 10° N
STARLINK-1098 3.7 19:54:07 10° WNW 19:58:15 66° NNE 19:59:43 37° E
Cosmos 1606 Rocket 4.3 19:59:07 31° E 19:59:07 31° E 20:03:03 10° NNE
Cosmos 1943 Rocket 2.1 19:56:01 10° NNW 20:01:35 75° ENE 20:04:35 28° SE
Meteor 1-21 Rocket 4.1 19:56:39 10° N 20:02:15 77° ENE 20:06:08 20° SSE
Cosmos 1943 3.8 20:01:04 26° SE 20:03:07 33° ESE 20:08:10 10° NE
STARLINK-1123 3.6 19:59:05 10° WNW 20:03:14 70° NNE 20:04:30 42° E
STARLINK-1246 4.4 20:00:13 10° W 20:04:13 49° NNW 20:07:11 17° NE
Meteor 2-10 4.2 20:00:44 12° S 20:05:27 55° E 20:10:51 10° NNE
SL-8 R/B 3.8 20:00:47 10° WNW 20:05:34 72° N 20:07:34 34° E
Resurs 1-3 3.5 20:05:31 25° SSE 20:08:02 90° N 20:12:28 10° NNW
STARLINK-1097 3.6 20:04:03 10° WNW 20:08:12 75° NNE 20:09:16 48° E
Cosmos 1626 4.2 20:05:52 10° NNW 20:09:04 28° W 20:12:14 10° SSW
ATLAS 2AS CENTAUR R/B 3.7 20:03:33 10° NNW 20:10:43 39° NE 20:14:22 24° E
STARLINK-1099 3.5 20:09:02 10° WNW 20:13:12 80° NNE 20:14:04 54° ESE
H-2A R/B 3.6 20:09:58 10° SSW 20:14:49 35° W 20:19:34 10° NNW
USA 234 3.2 20:10:03 10° NE 20:16:38 87° SE 20:23:12 10° SW
Cosmos 2154 Rocket 4.3 20:10:37 10° N 20:16:48 50° ENE 20:19:00 36° SE
Aureole 3 3.8 20:12:58 10° SSW 20:16:57 73° W 20:22:07 10° N
Resurs 01 Rocket 1.5 20:16:28 42° SSE 20:17:57 81° ENE 20:22:23 10° NNW
STARLINK-1104 3.5 20:14:01 10° WNW 20:18:11 85° NNE 20:18:51 62° ESE
DMSP B5D2-2 4.0 20:14:05 10° NNE 20:19:19 89° ESE 20:24:33 10° SSW
SL-16 R/B 3.3 20:15:08 10° SW 20:20:33 46° WNW 20:26:01 10° NNE
Cosmos 1328 4.3 20:16:57 10° N 20:20:25 43° ENE 20:20:25 43° ENE
Cosmos 2228 3.3 20:22:39 47° ENE 20:22:39 47° ENE 20:26:22 10° NNE
Abrixas rocket 3.7 20:19:16 10° WSW 20:20:45 26° SW 20:20:45 26° SW
STARLINK-1144 3.4 20:19:00 10° WNW 20:23:10 90° SSW 20:23:38 69° ESE
Cosmos 1953 2.6 20:23:07 17° SSW 20:26:06 66° W 20:30:04 10° N
STARLINK-1103 3.4 20:23:58 10° WNW 20:28:08 84° SSW 20:28:25 76° SSE
Cosmos 1992 Rocket 4.0 20:26:07 10° NNW 20:31:21 79° WSW 20:33:07 42° S
Nadezhda 1 Rocket 4.0 20:29:47 30° SSE 20:33:00 65° E 20:39:20 10° NNE
STARLINK-1101 3.5 20:28:57 10° WNW 20:33:06 79° SSW 20:33:11 78° SSW
ISS -2.9 20:33:02 10° WNW 20:35:39 51° NW 20:35:39 51° NW
STARLINK-1102 3.6 20:33:56 10° WNW 20:37:58 72° SW 20:37:58 72° SW
Cosmos 2058 Rocket 4.4 20:42:37 29° NE 20:42:37 29° NE 20:45:10 10° NNE
MetOp-B 4.0 20:40:10 55° SSE 20:41:23 82° ENE 20:46:47 10° NNW
Cosmos 1603 3.5 20:36:33 10° SSW 20:42:12 84° ESE 20:47:51 10° NNE
STARLINK-1111 3.8 20:38:56 10° WNW 20:42:45 65° WSW 20:42:45 65° WSW
Cosmos 2084 Rocket 3.8 20:38:44 10° NW 20:43:07 56° SW 20:43:30 54° SSW
Cosmos 2251 Rocket 3.8 20:37:48 10° SSW 20:43:08 71° WNW 20:48:33 10° NNE
SPOT 5 4.1 20:44:26 25° NE 20:44:26 25° NE 20:47:04 10° N
Meteor 1-16 Rocket 4.1 20:40:19 24° SSW 20:43:36 84° WNW 20:49:05 10° N
Cosmos 1703 3.5 20:40:28 10° N 20:43:49 63° N 20:43:49 63° N
IGS 5A 4.3 20:49:02 42° NNE 20:49:02 42° NNE 20:52:05 10° N
STARLINK-1073 4.0 20:43:55 10° WNW 20:47:33 57° WSW 20:47:33 57° WSW
ERS-1 Rocket 3.6 20:48:38 41° NE 20:48:38 41° NE 20:52:55 10° N
Cosmos 2074 Rocket 4.4 20:43:05 10° NNW 20:49:15 62° W 20:53:00 25° SSW
Landsat 7 3.9 20:49:39 59° NE 20:49:39 59° NE 20:54:02 10° N
CZ-2C R/B 3.0 20:45:03 10° N 20:50:09 60° WNW 20:55:13 10° SSW
STARLINK-1121 4.3 20:48:54 10° WNW 20:52:19 50° WSW 20:52:19 50° WSW
Cosmos 1656 Rocket 3.5 20:56:04 10° NNW 21:01:47 81° ENE 21:02:03 78° ESE
Meteor 1-11 4.1 20:57:59 10° NNW 21:03:49 87° W 21:04:29 71° S
Aureole 1 Rocket 4.3 21:01:50 49° SSE 21:03:52 65° ESE 21:10:28 10° NNE
Cosmos 1726 Rocket 4.2 21:10:43 55° NW 21:10:43 55° NW 21:14:36 10° N
COSMOS 2455 3.6 21:09:25 10° NNW 21:15:05 40° NE 21:15:09 40° NE
Cosmos 1726 4.4 21:17:22 21° W 21:18:06 23° WNW 21:21:08 10° NNW
Cosmos 2341 Rocket 3.9 21:16:07 10° N 21:22:31 86° E 21:22:43 84° SE
Cosmos 2369 Rocket 3.4 21:18:53 10° NW 21:23:57 34° WSW 21:25:03 32° SW
NOSS 3-4 (A) 3.7 21:22:32 10° NW 21:29:33 78° NE 21:30:09 73° E
NOSS 3-4 (C) 3.7 21:22:39 10° NW 21:29:39 78° NE 21:30:14 73° E
Terra 3.0 21:32:46 36° N 21:32:46 36° N 21:35:41 10° N
SPOT 1/Viking Rocket 4.2 21:41:28 50° WNW 21:41:28 50° WNW 21:45:56 10° NNW
Cosmos 1943 Rocket 4.3 21:41:09 10° WNW 21:44:39 17° W 21:46:08 16° WSW
Cosmos 1943 4.3 21:42:19 13° WSW 21:47:03 42° NW 21:52:27 10° NNE
Cosmos 2218 Rocket 4.2 21:43:22 10° N 21:48:36 65° N 21:48:36 65° N
Resurs 01 Rocket 4.4 21:54:01 10° W 21:55:01 11° W 21:56:12 10° WNW
USA 234 4.2 21:53:12 10° NE 21:59:19 44° NNW 22:05:26 10° W
Cosmos 2181 Rocket 4.3 22:00:17 64° NNW 22:00:17 64° NNW 22:05:39 10° N
ATLAS 2AS CENTAUR R/B 2.9 21:54:43 10° NW 22:01:48 67° W 22:01:48 67° W
Mayak 1.7 22:15:21 10° NNE 22:15:32 11° NNE 22:15:32 11° NNE
Cosmos 1980 Rocket 4.2 22:32:23 10° N 22:35:28 20° NNE 22:35:28 20° NNE
CZ-4C R/B 4.2 22:31:14 10° NNW 22:37:03 29° NNE 22:38:44 27° NE
SL-16 R/B 4.5 23:52:44 20° NE 23:52:50 20° NE 23:57:08 10° N
